Paris, IL

2:44 PM CDT on May 23, 2018 (GMT -0500)
Edgar County

Weather History for KPRG - September, 2013

Change the Weather History Date:

Friday, September 13, 2013

  Actual Average (KHUF) Record (KHUF)
Temperature  
Mean Temperature 60 °F -  
Max Temperature 72 °F 81 °F 95 °F (1991)
Min Temperature 49 °F 57 °F 37 °F (1955)
Degree Days  
Heating Degree Days 4    
Growing Degree Days 10 (Base 50)    
Moisture  
Dew Point 49 °F    
Average Humidity 70    
Maximum Humidity 99    
Minimum Humidity 41    
Precipitation  
Precipitation 0.00 in - - ()
Sea Level Pressure  
Sea Level Pressure 30.11 in    
Wind  
Wind Speed 3 mph (North)    
Max Wind Speed 12 mph    
Max Gust Speed 21 mph    
Visibility 10 miles    
Events      
Averages and records for this station are not official NWS values.
T = Trace of Precipitation, MM = Missing Value Source: NWS Daily Summary

Daily Weather History Graph

Daily Weather History Graph

Search for Another Location

Airport or City:

Astronomy

Sep. 13, 2013 Rise Set
Actual Time 6:30 AM CDT 7:02 PM CDT
Civil Twilight 6:03 AM CDT 7:29 PM CDT
Nautical Twilight 5:31 AM CDT 8:01 PM CDT
Astronomical Twilight 4:58 AM CDT 8:33 PM CDT
Moon 2:51 PM CDT (9/13) No Moon Set
Length of Visible Light 13h 26m
Length of Day
12h 31m
First Quarter, 61% of the Moon is Illuminated
Sep 13
First Quarter
Sep 19
Full
Sep 26
Last Quarter
Oct 4
New
Oct 11
First Quarter

Hourly Weather History & Observations

Time (CDT) Temp. Dew Point Humidity Pressure Visibility Wind Dir Wind Speed Gust Speed Precip Events Conditions
12:15 AM 59.2 °F 56.3 °F 90% 30.05 in 10.0 mi Calm Calm - N/A   Clear
12:35 AM 59.2 °F 56.3 °F 90% 30.05 in 10.0 mi Calm Calm - N/A   Clear
12:55 AM 58.3 °F 55.9 °F 92% 30.05 in 10.0 mi NNW 3.5 mph - N/A   Clear
1:15 AM 58.1 °F 55.9 °F 93% 30.06 in 10.0 mi North 3.5 mph - N/A   Clear
1:35 AM 58.1 °F 55.8 °F 92% 30.06 in 10.0 mi Calm Calm - N/A   Clear
1:55 AM 58.1 °F 55.6 °F 91% 30.06 in 10.0 mi Calm Calm - N/A   Clear
2:15 AM 57.4 °F 55.4 °F 93% 30.06 in 10.0 mi Calm Calm - N/A   Clear
2:35 AM 56.5 °F 54.7 °F 94% 30.07 in 10.0 mi Calm Calm - N/A   Clear
2:55 AM 55.6 °F 54.1 °F 95% 30.07 in 10.0 mi Calm Calm - N/A   Clear
3:15 AM 55.6 °F 54.3 °F 96% 30.07 in 10.0 mi Calm Calm - N/A   Clear
3:35 AM 55.4 °F 53.6 °F 94% 30.07 in 10.0 mi Calm Calm - N/A   Clear
3:55 AM 54.7 °F 53.2 °F 95% 30.07 in 10.0 mi Calm Calm - N/A   Clear
4:15 AM 54.1 °F 53.1 °F 96% 30.08 in 10.0 mi Calm Calm - N/A   Clear
4:35 AM 53.6 °F 52.5 °F 96% 30.08 in 10.0 mi Calm Calm - N/A   Clear
4:55 AM 52.0 °F 50.7 °F 95% 30.09 in 10.0 mi Calm Calm - N/A   Clear
5:15 AM 51.1 °F 50.2 °F 97% 30.10 in 10.0 mi Calm Calm - N/A   Clear
5:35 AM 50.5 °F 50.0 °F 98% 30.10 in 10.0 mi Calm Calm - N/A   Clear
5:55 AM 50.2 °F 49.8 °F 99% 30.11 in 7.0 mi Calm Calm - N/A   Clear
6:15 AM 50.0 °F 49.3 °F 97% 30.11 in 5.0 mi Calm Calm - N/A   Clear
6:35 AM 50.5 °F 50.2 °F 99% 30.12 in 10.0 mi Calm Calm - N/A   Clear
6:55 AM 51.8 °F 51.3 °F 98% 30.12 in 10.0 mi NNW 3.5 mph - N/A   Clear
7:15 AM 53.4 °F 52.9 °F 98% 30.13 in 10.0 mi North 3.5 mph - N/A   Clear
7:35 AM 54.5 °F 53.8 °F 97% 30.13 in 10.0 mi Calm Calm - N/A   Mostly Cloudy
7:55 AM 57.2 °F 55.0 °F 92% 30.13 in 10.0 mi Calm Calm - N/A   Scattered Clouds
8:15 AM 57.6 °F 52.9 °F 84% 30.13 in 10.0 mi Calm Calm - N/A   Mostly Cloudy
8:35 AM 59.4 °F 51.3 °F 75% 30.13 in 10.0 mi NE 4.6 mph - N/A   Scattered Clouds
8:55 AM 60.4 °F 51.1 °F 71% 30.14 in 10.0 mi NE 5.8 mph - N/A   Clear
9:15 AM 61.5 °F 49.8 °F 65% 30.14 in 10.0 mi ENE 4.6 mph - N/A   Clear
9:35 AM 63.1 °F 50.4 °F 63% 30.15 in 10.0 mi Calm Calm - N/A   Scattered Clouds
9:55 AM 64.2 °F 50.7 °F 61% 30.14 in 10.0 mi NNW 6.9 mph - N/A   Scattered Clouds
10:15 AM 64.4 °F 51.6 °F 63% 30.15 in 10.0 mi North 5.8 mph - N/A   Mostly Cloudy
10:35 AM 64.9 °F 51.8 °F 62% 30.15 in 10.0 mi NNE 3.5 mph - N/A   Mostly Cloudy
10:55 AM 66.2 °F 52.0 °F 60% 30.15 in 10.0 mi NNE 6.9 mph - N/A   Mostly Cloudy
11:15 AM 66.9 °F 50.5 °F 56% 30.15 in 10.0 mi North 6.9 mph - N/A   Mostly Cloudy
11:35 AM 65.1 °F 50.2 °F 58% 30.14 in 10.0 mi NNW 5.8 mph - N/A   Overcast
11:55 AM 66.2 °F 50.5 °F 57% 30.13 in 10.0 mi North 8.1 mph - N/A   Mostly Cloudy
12:15 PM 68.4 °F 47.7 °F 48% 30.13 in 10.0 mi NW 9.2 mph - N/A   Mostly Cloudy
12:35 PM 70.9 °F 46.2 °F 41% 30.12 in 10.0 mi NNW 9.2 mph 19.6 mph N/A   Scattered Clouds
12:55 PM 69.8 °F 45.7 °F 42% 30.12 in 10.0 mi North 8.1 mph - N/A   Scattered Clouds
1:15 PM 70.5 °F 46.4 °F 42% 30.12 in 10.0 mi North 10.4 mph 18.4 mph N/A   Scattered Clouds
1:35 PM 69.6 °F 46.4 °F 43% 30.11 in 10.0 mi North 9.2 mph - N/A   Mostly Cloudy
1:55 PM 69.1 °F 46.9 °F 45% 30.10 in 10.0 mi NNE 6.9 mph 16.1 mph N/A   Overcast
2:15 PM 68.7 °F 47.5 °F 47% 30.10 in 10.0 mi North 6.9 mph - N/A   Mostly Cloudy
2:35 PM 70.0 °F 47.7 °F 45% 30.10 in 10.0 mi NNE 8.1 mph - N/A   Mostly Cloudy
2:55 PM 69.8 °F 47.7 °F 45% 30.09 in 10.0 mi NNE 9.2 mph 19.6 mph N/A   Scattered Clouds
3:15 PM 71.4 °F 46.4 °F 41% 30.09 in 10.0 mi North 10.4 mph - N/A   Scattered Clouds
3:35 PM 69.8 °F 46.2 °F 43% 30.09 in 10.0 mi North 11.5 mph 19.6 mph N/A   Mostly Cloudy
3:55 PM 68.4 °F 45.9 °F 44% 30.09 in 10.0 mi North 9.2 mph 17.3 mph N/A   Scattered Clouds
4:15 PM 68.9 °F 45.7 °F 43% 30.09 in 10.0 mi NNE 8.1 mph 17.3 mph N/A   Scattered Clouds
4:35 PM 70.2 °F 46.0 °F 42% 30.09 in 10.0 mi North 10.4 mph 20.7 mph N/A   Scattered Clouds
4:55 PM 67.8 °F 46.0 °F 46% 30.08 in 10.0 mi North 8.1 mph - N/A   Scattered Clouds
5:15 PM 69.3 °F 46.2 °F 44% 30.09 in 10.0 mi North 8.1 mph 16.1 mph N/A   Scattered Clouds
5:35 PM 66.2 °F 45.9 °F 48% 30.09 in 10.0 mi North 5.8 mph - N/A   Scattered Clouds
5:55 PM 67.5 °F 45.9 °F 46% 30.09 in 10.0 mi NNE 8.1 mph - N/A   Clear
6:15 PM 66.4 °F 45.3 °F 47% 30.09 in 10.0 mi NNE 6.9 mph - N/A   Clear
6:35 PM 64.8 °F 45.9 °F 50% 30.09 in 10.0 mi NNE 6.9 mph - N/A   Clear
6:55 PM 63.1 °F 46.4 °F 54% 30.10 in 10.0 mi North 3.5 mph - N/A   Clear
7:15 PM 61.0 °F 46.8 °F 59% 30.10 in 10.0 mi North 5.8 mph - N/A   Clear
7:35 PM 60.8 °F 45.3 °F 57% 30.10 in 10.0 mi North 8.1 mph - N/A   Clear
7:55 PM 59.9 °F 45.5 °F 59% 30.11 in 10.0 mi NNE 5.8 mph - N/A   Clear
8:15 PM 58.3 °F 45.7 °F 63% 30.12 in 10.0 mi NNE 3.5 mph - N/A   Clear
8:35 PM 57.7 °F 46.0 °F 65% 30.12 in 10.0 mi NNE 5.8 mph - N/A   Clear
8:55 PM 56.5 °F 46.0 °F 68% 30.12 in 10.0 mi NNE 6.9 mph - N/A   Clear
9:15 PM 55.8 °F 46.0 °F 70% 30.12 in 10.0 mi NNE 3.5 mph - N/A   Clear
9:35 PM 54.5 °F 45.9 °F 73% 30.12 in 10.0 mi NE 3.5 mph - N/A   Clear
9:55 PM 54.0 °F 45.7 °F 74% 30.13 in 10.0 mi NE 4.6 mph - N/A   Clear
10:15 PM 53.6 °F 45.5 °F 74% 30.13 in 10.0 mi NNE 3.5 mph - N/A   Clear
10:35 PM 52.0 °F 45.1 °F 77% 30.13 in 10.0 mi NE 3.5 mph - N/A   Clear
10:55 PM 50.9 °F 45.0 °F 80% 30.13 in 10.0 mi Calm Calm - N/A   Clear
11:15 PM 50.7 °F 45.0 °F 81% 30.13 in 10.0 mi Calm Calm - N/A   Clear
11:35 PM 50.2 °F 45.0 °F 82% 30.14 in 10.0 mi Calm Calm - N/A   Clear
11:55 PM 49.1 °F 44.8 °F 85% 30.14 in 10.0 mi Calm Calm - N/A   Clear